Dewpoint
53 53 53 52 52 51 51 51 50 50 50 50 51 54 55 55 55 55 53 52 49 46 48 50 51 52 28 10 19 22 41 38 37 43 42 41 36 36 33 31 31 29 27 26 25 23 22
52 53 53 52 52 51 51 50 50 50 49 50 49 50 53 53 54 54 52 49 46 48 51 49 50 45 22 10 22 23 26 33 31 38 33 35 38 36 33 30 30 29 27 27 27 24 21
52 53 53 52 51 50 50 50 50 49 49 48 48 48 49 51 51 51 50 49 46 47 47 47 50 12 15 17 17 21 23 31 28 30 32 30 35 34 32 29 30 28 26 26 26 26 23
52 52 52 52 51 50 50 50 49 48 48 48 47 47 47 48 50 52 50 51 49 48 50 48 47 10 13 19 20 22 22 27 26 29 28 31 37 34 31 30 28 25 25 26 26 26 24
52 52 52 52 51 50 49 49 49 48 47 47 45 46 45 47 49 50 50 50 47 49 49 46 17 9 9 25 20 21 20 21 25 30 29 26 35 32 31 28 26 26 21 22 20 24 24
53 52 52 52 51 50 49 49 48 48 47 47 45 46 45 47 48 47 47 48 46 33 22 18 13 11 13 15 19 22 18 22 25 27 27 22 31 30 30 25 18 22 22 24 19 18 23
53 52 52 52 51 50 49 48 48 47 46 46 44 45 46 46 46 46 34 26 18 20 16 10 12 12 15 17 23 21 19 23 23 15 17 14 25 25 25 24 20 23 23 19 15 9 12
54 53 53 52 51 50 49 48 47 46 45 45 44 46 45 47 45 45 33 23 25 17 12 16 16 14 16 20 17 21 19 17 19 10 8 8 12 7 9 7 9 9 7 5 3 7 5
56 54 53 53 52 51 50 48 47 46 44 42 47 47 45 45 45 34 29 27 35 29 15 13 17 14 15 16 12 14 15 14 9 5 5 3 2 2 2 3 7 2 7 3 6 3 0
57 56 54 53 52 51 51 49 47 45 43 42 43 44 44 45 31 30 31 33 37 31 15 15 15 15 16 19 11 17 16 13 10 4 6 4 3 -2 -0 1 3 -3 5 5 3 1 -4
58 57 56 55 54 52 52 50 48 46 43 44 44 42 44 38 24 28 32 35 39 27 20 16 14 17 17 14 15 11 16 10 6 3 2 0 -2 -3 -1 -0 7 3 6 4 3 0 -1
59 58 57 56 55 54 53 51 49 47 43 44 45 43 42 32 34 35 38 40 32 23 17 15 14 11 10 13 12 13 7 6 8 5 4 3 4 2 3 9 9 8 4 5 9 7 -0
59 58 58 57 56 55 54 53 50 48 44 44 43 44 39 37 30 39 40 32 27 22 16 13 12 11 8 8 9 9 5 -5 -3 -3 -7 1 1 6 6 2 7 7 1 3 -0 2 -3
59 59 59 58 57 56 54 54 51 48 45 42 42 38 34 32 35 37 33 30 25 19 10 13 11 9 5 7 8 9 4 1 2 7 2 3 0 3 5 4 3 5 5 11 2 -2 3
59 59 59 58 57 56 55 54 52 50 48 44 37 29 28 30 33 35 31 29 28 21 12 9 9 3 4 7 4 6 6 2 2 6 4 6 1 7 8 8 6 3 2 17 8 9 1
59 59 59 58 58 57 56 54 52 51 49 43 27 25 26 29 30 30 27 31 23 15 12 8 13 6 4 4 3 3 3 6 7 11 15 12 6 6 7 8 10 11 12 4 11 3 4
58 59 59 59 58 57 56 54 52 49 47 41 26 30 27 31 29 22 29 27 17 15 14 8 6 5 4 4 3 1 8 10 10 8 7 10 9 4 4 4 4 8 11 15 16 16 8
58 57 58 59 58 57 56 54 52 49 46 36 36 38 32 30 22 23 20 21 23 16 16 14 9 7 4 5 6 3 6 6 11 10 8 10 10 3 2 5 5 6 11 11 8 5 8
56 56 56 55 57 56 55 54 52 49 42 40 38 35 32 29 33 23 20 18 18 17 15 14 12 11 9 8 18 13 14 14 13 10 8 13 8 6 13 9 5 4 8 13 11 8 3
54 53 53 54 54 56 55 53 51 48 44 41 37 35 29 28 22 25 19 20 19 22 19 16 13 11 11 9 15 25 24 14 15 13 21 16 3 11 15 14 6 3 6 10 11 5 5
53 51 51 53 53 55 54 52 50 45 45 44 39 35 32 27 24 23 28 33 21 20 19 17 16 15 15 18 17 14 16 11 12 15 18 17 2 4 5 5 7 6 6 7 8 9 9
50 49 50 51 52 54 53 51 48 45 46 42 37 34 33 27 25 29 33 31 31 28 30 21 18 20 19 18 23 21 18 12 13 13 14 11 6 3 4 8 9 8 9 9 8 8 9
48 49 50 51 52 53 53 50 48 46 46 40 38 36 37 31 29 29 28 31 30 31 27 25 19 18 17 17 17 15 17 16 17 14 15 11 7 10 7 1 -1 3 6 8 9 8 9
47 48 50 51 52 53 53 50 48 46 43 41 38 39 34 29 30 30 31 30 31 30 31 24 24 25 20 18 18 14 8 7 6 3 16 13 12 14 5 -2 -4 5 -5 -0 6 6 -0
47 48 50 54 54 53 52 50 47 46 43 39 39 37 33 30 31 30 30 30 29 30 25 26 21 20 20 24 15 8 8 5 1 7 11 9 12 10 8 -6 3 3 -3 -4 -5 -3 -12
46 47 50 54 53 52 51 50 48 46 43 40 40 41 38 33 31 29 28 29 29 27 22 18 20 24 24 23 15 6 8 7 2 -2 6 10 7 14 7 4 -3 -1 -3 -7 -11 -6 -4
45 47 49 52 53 52 51 49 48 47 44 40 38 39 39 33 27 24 27 28 23 20 19 12 16 18 20 16 10 7 6 2 4 -1 -2 3 5 6 8 7 4 -2 -3 -8 -5 2 -3
45 45 47 50 51 52 51 50 49 47 44 41 34 35 38 32 24 20 22 26 22 20 15 11 18 12 13 10 11 8 1 4 -2 -4 -3 -1 3 2 7 5 -1 -1 -5 -0 -2 -7 -4
46 45 46 47 49 51 51 50 49 48 45 40 35 31 28 28 21 21 21 22 21 20 18 18 15 10 17 11 11 16 11 6 0 5 -2 4 7 5 7 4 -0 0 -2 -4 -4 -1 -0
Lifted_Index
11 11 11 11 11 12 12 13 13 13 13 13 13 12 10 10 10 10 11 12 13 14 14 14 14 14 13 12 12 12 11 9 8 8 8 8 8 7 7 8 8 8 8 8 8 8 8
11 11 11 11 11 12 12 13 13 13 13 14 13 13 12 11 11 11 12 13 14 14 14 15 15 15 13 12 13 13 11 9 8 8 8 8 8 7 7 8 8 8 8 8 8 8 8
11 11 11 11 11 12 12 12 13 13 14 14 14 14 13 12 12 12 13 14 15 15 15 15 15 15 14 13 14 14 12 10 9 8 8 8 8 7 7 8 8 8 8 8 8 8 8
11 11 11 11 12 12 12 13 13 13 14 14 15 15 15 14 13 14 14 15 15 16 15 15 16 15 14 15 16 15 13 11 10 9 9 8 8 7 7 7 8 7 7 6 7 8 8
11 11 11 12 12 12 13 13 13 14 14 15 15 15 15 15 15 15 15 16 16 16 16 16 16 14 13 15 16 15 14 12 11 10 9 8 8 8 7 7 6 6 5 5 6 8 9
10 11 11 12 12 12 13 13 14 14 15 15 15 16 16 16 16 16 16 16 15 15 15 15 14 12 13 14 15 15 14 13 12 10 9 9 8 7 7 6 5 5 4 4 6 8 9
10 10 11 12 12 12 13 13 14 14 15 15 15 15 15 16 16 17 16 14 12 12 12 12 12 12 14 15 15 14 14 13 12 10 9 8 7 7 7 7 7 6 5 5 6 8 8
9 9 10 11 12 12 13 13 14 15 15 15 15 15 15 15 16 16 14 11 11 11 10 10 12 14 16 16 15 14 14 13 11 10 9 8 7 8 8 8 7 6 5 5 7 8 9
8 9 9 10 11 12 13 13 14 15 15 15 15 15 15 14 14 13 11 12 14 13 9 9 12 14 16 16 14 14 14 13 11 9 8 8 8 9 8 8 7 6 6 6 6 7 8
8 8 8 9 10 11 12 13 14 15 15 15 15 14 14 13 11 10 10 14 16 13 8 7 10 13 15 14 13 14 15 13 11 9 8 8 8 8 8 7 7 7 7 7 7 6 6
7 7 8 8 8 9 11 12 13 14 15 15 15 14 13 11 9 9 12 15 14 9 5 6 9 12 13 12 12 13 14 13 11 9 9 8 9 8 8 8 8 8 8 8 7 6 5
6 6 7 7 7 7 9 11 12 13 14 15 14 13 11 10 9 11 13 13 10 6 4 5 7 8 8 8 9 10 11 11 10 8 7 7 8 9 8 8 9 8 7 6 5 4 3
5 5 5 6 5 6 7 8 10 11 13 14 14 12 11 10 10 12 12 9 6 4 4 4 5 5 5 5 6 6 7 6 6 5 4 5 6 8 8 7 7 7 5 3 2 2 1
4 4 4 4 4 4 5 6 7 9 11 13 13 12 10 10 11 11 9 6 4 4 4 4 4 3 3 4 4 4 4 4 4 4 3 3 4 6 7 6 6 5 3 2 1 1 1
3 3 3 3 3 3 4 4 5 7 10 12 12 10 9 10 11 9 6 4 4 4 4 4 3 3 3 4 4 4 4 4 4 5 4 3 4 5 7 7 6 5 4 4 2 2 1
3 3 3 3 3 3 3 3 4 6 9 11 9 6 7 9 10 7 4 4 4 4 4 4 3 3 3 3 4 4 4 4 4 5 5 4 4 5 6 7 6 5 5 4 3 2 1
3 2 2 2 2 2 3 3 4 5 8 8 6 4 6 9 8 5 4 4 4 4 4 4 3 3 3 4 4 4 4 4 5 5 6 5 4 5 5 6 6 5 5 4 3 3 2
2 2 2 2 2 2 2 2 3 3 5 5 4 4 6 7 5 3 3 3 4 4 4 4 4 4 4 4 4 5 5 5 5 5 5 5 5 4 5 5 6 5 5 5 4 4 4
3 3 3 3 2 2 2 2 2 3 3 3 3 3 4 5 3 3 3 3 3 3 4 4 4 4 4 5 5 5 5 5 6 6 6 6 5 4 4 5 6 6 6 5 5 5 4
4 5 5 5 4 3 2 2 2 2 2 2 2 3 3 3 3 3 3 3 3 3 4 4 4 4 5 5 5 5 6 6 6 6 7 7 6 5 4 5 5 5 5 5 5 4 3
6 7 7 6 5 3 2 2 1 2 2 2 2 3 3 3 3 3 4 4 3 3 4 4 4 4 4 5 5 6 6 6 6 6 7 7 6 5 5 5 5 5 5 4 4 3 3
7 7 7 6 5 4 2 2 2 2 2 2 3 3 3 3 3 4 4 4 3 4 4 4 4 4 5 5 6 6 6 6 6 6 6 6 5 5 5 5 5 5 4 4 3 3 3
7 6 6 5 5 4 3 3 3 3 3 3 3 4 3 3 4 4 4 4 4 4 5 5 5 5 6 7 7 7 7 7 6 6 6 6 4 4 4 4 4 4 5 4 4 4 5
7 6 5 4 4 4 4 4 3 3 4 4 4 4 4 4 4 4 4 4 5 5 6 6 6 7 7 7 7 7 7 6 6 6 6 5 4 3 3 3 3 4 5 5 5 6 6
7 7 5 4 4 4 5 5 4 4 4 4 4 4 4 4 4 4 4 5 6 6 6 6 7 8 8 7 6 6 5 5 6 6 7 6 5 4 3 3 3 4 6 6 6 7 7
8 7 5 4 4 5 5 5 5 5 5 5 5 5 5 5 5 5 5 6 6 7 6 6 7 8 8 6 5 4 4 5 5 5 6 6 5 4 3 3 3 5 7 8 7 7 8
8 8 6 5 5 5 5 5 6 6 5 5 5 5 5 6 6 7 6 6 7 7 7 6 7 7 7 6 5 4 4 5 5 5 5 6 5 5 4 3 5 7 9 9 8 8 9
9 9 8 6 5 5 5 5 6 6 6 5 6 6 7 7 7 8 7 7 7 7 7 6 6 6 6 5 5 5 5 5 5 5 6 6 5 5 5 5 6 8 10 10 10 10 11
9 9 8 7 6 6 6 6 6 6 6 6 6 7 8 8 8 8 8 7 7 7 7 6 6 6 6 5 5 5 5 6 6 6 6 6 6 6 6 6 7 9 10 11 11 11 11